When you browse on this site, cookies collect data to enhance your experience and personalize the content and advertising you see.
Visit our Privacy Policy to learn more. By continuing to use the site, you agree to this use of cookies and data.
  • In Czech Republic
  • List of Countries
  • For 7 days
  • Water Temperature
  • Satellite Maps
  • Weather Map
  • Weather Widgets
  • user-avatar
    Login

    Hourly Weather Vesnik

    Today, 20 May, Monday

    Time Temperature Precipitation Wind Pressure Humidity
    00:00 +16°C° 0 mm 3 mps 749 mmHg 86%
    01:00 +14°C° 0 mm 3 mps 749 mmHg 87%
    02:00 +14°C° 0 mm 3 mps 748 mmHg 87%
    03:00 +14°C° 0 mm 3 mps 749 mmHg 86%
    04:00 +14°C° 0 mm 3 mps 749 mmHg 85%
    05:00 +14°C° 0 mm 4 mps 749 mmHg 84%
    06:00 +17°C° 0 mm 4 mps 749 mmHg 75%
    07:00 +19°C° 0 mm 5 mps 749 mmHg 67%
    08:00 +21°C° 0 mm 5 mps 749 mmHg 59%
    09:00 +22°C° 0 mm 5 mps 749 mmHg 55%
    10:00 +23°C° 0 mm 6 mps 749 mmHg 51%
    11:00 +24°C° 0 mm 6 mps 749 mmHg 47%
    12:00 +26°C° 0 mm 6 mps 749 mmHg 46%
    13:00 +26°C° 0 mm 6 mps 749 mmHg 45%
    14:00 +26°C° 0 mm 6 mps 749 mmHg 44%
    15:00 +26°C° 0 mm 6 mps 748 mmHg 46%
    16:00 +26°C° 0 mm 5 mps 748 mmHg 48%
    17:00 +25°C° 0 mm 5 mps 748 mmHg 50%
    18:00 +23°C° 0 mm 5 mps 748 mmHg 56%
    19:00 +21°C° 0 mm 4 mps 748 mmHg 63%
    20:00 +19°C° 0 mm 4 mps 748 mmHg 69%
    21:00 +18°C° 0 mm 4 mps 748 mmHg 69%
    22:00 +18°C° 0 mm 4 mps 748 mmHg 70%
    23:00 +17°C° 0 mm 4 mps 748 mmHg 70%

    Tomorrow, 21 May, Tuesday

    Time Temperature Precipitation Wind Pressure Humidity
    00:00 +17°C° 0 mm 4 mps 748 mmHg 71%
    01:00 +15°C° 0 mm 4 mps 748 mmHg 72%
    02:00 +15°C° 0 mm 5 mps 748 mmHg 72%
    03:00 +15°C° 0 mm 5 mps 748 mmHg 72%
    04:00 +15°C° 0 mm 5 mps 748 mmHg 71%
    05:00 +15°C° 0 mm 5 mps 747 mmHg 70%
    06:00 +16°C° 0 mm 5 mps 747 mmHg 67%
    07:00 +17°C° 0 mm 5 mps 747 mmHg 65%
    08:00 +19°C° 0 mm 6 mps 747 mmHg 62%
    09:00 +21°C° 0 mm 6 mps 747 mmHg 59%
    10:00 +22°C° 0 mm 6 mps 747 mmHg 56%
    11:00 +24°C° 0 mm 7 mps 747 mmHg 54%
    12:00 +24°C° 0.1 mm 7 mps 747 mmHg 53%
    13:00 +26°C° 0.1 mm 7 mps 746 mmHg 52%
    14:00 +26°C° 0.1 mm 7 mps 746 mmHg 51%
    15:00 +24°C° 0.6 mm 6 mps 746 mmHg 59%
    16:00 +23°C° 0.6 mm 5 mps 745 mmHg 67%
    17:00 +22°C° 0.6 mm 4 mps 745 mmHg 75%
    18:00 +21°C° 0.4 mm 4 mps 745 mmHg 78%
    19:00 +20°C° 0.4 mm 4 mps 745 mmHg 82%
    20:00 +18°C° 0.4 mm 3 mps 745 mmHg 85%
    21:00 +18°C° 0 mm 3 mps 745 mmHg 86%
    22:00 +17°C° 0 mm 3 mps 745 mmHg 87%
    23:00 +16°C° 0 mm 3 mps 745 mmHg 88%

    Day after tomorrow, 22 May, Wednesday

    Time Temperature Precipitation Wind Pressure Humidity
    00:00 +16°C° 0 mm 3 mps 744 mmHg 90%
    01:00 +14°C° 0 mm 3 mps 744 mmHg 92%
    02:00 +14°C° 0 mm 3 mps 744 mmHg 93%
    03:00 +14°C° 0 mm 3 mps 744 mmHg 94%
    04:00 +14°C° 0 mm 2 mps 744 mmHg 95%
    05:00 +14°C° 0 mm 2 mps 744 mmHg 97%
    06:00 +16°C° 0 mm 2 mps 744 mmHg 90%
    07:00 +18°C° 0 mm 2 mps 744 mmHg 84%
    08:00 +20°C° 0 mm 2 mps 744 mmHg 78%
    09:00 +21°C° 0 mm 2 mps 744 mmHg 70%
    10:00 +24°C° 0 mm 2 mps 744 mmHg 62%
    11:00 +25°C° 0 mm 2 mps 744 mmHg 54%
    12:00 +26°C° 0 mm 3 mps 744 mmHg 51%
    13:00 +26°C° 0 mm 3 mps 744 mmHg 49%
    14:00 +27°C° 0 mm 3 mps 743 mmHg 46%
    15:00 +26°C° 0 mm 3 mps 743 mmHg 47%
    16:00 +26°C° 0 mm 3 mps 743 mmHg 49%
    17:00 +26°C° 0 mm 2 mps 743 mmHg 50%
    18:00 +24°C° 0 mm 2 mps 743 mmHg 57%
    19:00 +21°C° 0 mm 2 mps 743 mmHg 64%
    20:00 +20°C° 0 mm 1 mps 743 mmHg 71%
    21:00 +19°C° 0 mm 1 mps 743 mmHg 75%
    22:00 +18°C° 0 mm 1 mps 743 mmHg 79%
    23:00 +16°C° 0 mm 1 mps 743 mmHg 83%

    23 May, Thursday

    Time Temperature Precipitation Wind Pressure Humidity
    00:00 +15°C° 0 mm 0 mps 743 mmHg 84%
    01:00 +14°C° 0 mm 0 mps 743 mmHg 85%
    02:00 +14°C° 0 mm 0 mps 743 mmHg 86%
    03:00 +14°C° 0 mm 0 mps 743 mmHg 86%
    04:00 +14°C° 0 mm 0 mps 743 mmHg 85%
    05:00 +14°C° 0 mm 0 mps 743 mmHg 85%
    06:00 +17°C° 0 mm 0 mps 743 mmHg 77%
    07:00 +19°C° 0 mm 0 mps 743 mmHg 69%
    08:00 +21°C° 0 mm 0 mps 743 mmHg 62%
    09:00 +24°C° 0 mm 1 mps 743 mmHg 56%
    10:00 +26°C° 0 mm 1 mps 743 mmHg 50%
    11:00 +27°C° 0 mm 1 mps 743 mmHg 44%
    12:00 +26°C° 0 mm 1 mps 743 mmHg 45%
    13:00 +26°C° 0 mm 1 mps 743 mmHg 45%
    14:00 +26°C° 0 mm 1 mps 743 mmHg 46%
    15:00 +26°C° 0 mm 1 mps 742 mmHg 48%
    16:00 +26°C° 0 mm 1 mps 742 mmHg 50%
    17:00 +26°C° 0 mm 1 mps 742 mmHg 52%
    18:00 +24°C° 0 mm 1 mps 742 mmHg 57%
    19:00 +22°C° 0 mm 1 mps 742 mmHg 62%
    20:00 +20°C° 0 mm 1 mps 742 mmHg 68%
    21:00 +20°C° 0.1 mm 1 mps 742 mmHg 72%
    22:00 +19°C° 0.1 mm 1 mps 742 mmHg 75%
    23:00 +18°C° 0.1 mm 1 mps 742 mmHg 79%

    24 May, Friday

    Time Temperature Precipitation Wind Pressure Humidity
    00:00 +18°C° 0.8 mm 1 mps 742 mmHg 83%
    01:00 +16°C° 0.8 mm 1 mps 742 mmHg 87%
    02:00 +16°C° 0.8 mm 1 mps 742 mmHg 92%
    03:00 +16°C° 0.9 mm 1 mps 742 mmHg 92%
    04:00 +16°C° 0.9 mm 1 mps 742 mmHg 92%
    05:00 +16°C° 0.9 mm 1 mps 741 mmHg 93%
    06:00 +18°C° 0.3 mm 1 mps 741 mmHg 89%
    07:00 +20°C° 0.3 mm 1 mps 741 mmHg 84%
    08:00 +21°C° 0.3 mm 1 mps 741 mmHg 80%
    09:00 +21°C° 1.3 mm 1 mps 741 mmHg 77%
    10:00 +22°C° 1.3 mm 1 mps 741 mmHg 73%
    11:00 +23°C° 1.3 mm 1 mps 741 mmHg 69%
    12:00 +23°C° 2.6 mm 1 mps 741 mmHg 72%
    13:00 +22°C° 2.6 mm 1 mps 740 mmHg 74%
    14:00 +22°C° 2.6 mm 1 mps 740 mmHg 77%
    15:00 +22°C° 0.8 mm 1 mps 740 mmHg 76%
    16:00 +21°C° 0.8 mm 2 mps 740 mmHg 76%
    17:00 +21°C° 0.8 mm 2 mps 739 mmHg 75%
    18:00 +20°C° 0.2 mm 2 mps 739 mmHg 80%
    19:00 +18°C° 0.2 mm 2 mps 739 mmHg 86%
    20:00 +18°C° 0.2 mm 1 mps 739 mmHg 91%
    21:00 +16°C° 0.2 mm 2 mps 739 mmHg 93%
    22:00 +15°C° 0.2 mm 2 mps 739 mmHg 94%
    23:00 +15°C° 0.2 mm 2 mps 739 mmHg 96%

    25 May, Saturday

    Time Temperature Precipitation Wind Pressure Humidity
    00:00 +15°C° 0 mm 2 mps 739 mmHg 96%
    01:00 +14°C° 0 mm 2 mps 738 mmHg 97%
    02:00 +14°C° 0 mm 2 mps 738 mmHg 97%
    03:00 +14°C° 0.1 mm 2 mps 738 mmHg 97%
    04:00 +14°C° 0.1 mm 2 mps 738 mmHg 97%
    05:00 +14°C° 0.1 mm 1 mps 738 mmHg 97%
    06:00 +16°C° 0.1 mm 2 mps 738 mmHg 93%
    07:00 +17°C° 0.1 mm 2 mps 739 mmHg 90%
    08:00 +18°C° 0.1 mm 2 mps 739 mmHg 86%
    09:00 +19°C° 0 mm 2 mps 738 mmHg 83%
    10:00 +19°C° 0 mm 2 mps 738 mmHg 81%
    11:00 +20°C° 0 mm 2 mps 738 mmHg 78%
    12:00 +21°C° 0.6 mm 2 mps 738 mmHg 76%
    13:00 +21°C° 0.6 mm 3 mps 738 mmHg 73%
    14:00 +22°C° 0.6 mm 3 mps 738 mmHg 70%
    15:00 +22°C° 1.3 mm 3 mps 738 mmHg 74%
    16:00 +21°C° 1.3 mm 3 mps 738 mmHg 77%
    17:00 +21°C° 1.3 mm 4 mps 738 mmHg 80%
    18:00 +20°C° 1.3 mm 4 mps 738 mmHg 84%
    19:00 +19°C° 1.3 mm 3 mps 738 mmHg 87%
    20:00 +17°C° 1.3 mm 3 mps 738 mmHg 91%
    21:00 +17°C° 0 mm 4 mps 738 mmHg 92%
    22:00 +15°C° 0 mm 4 mps 738 mmHg 93%
    23:00 +15°C° 0 mm 4 mps 738 mmHg 95%
    Show more